FW2178 Weather Reports


Display with metric or nautical units.
time (UTC)temp
F
wind
direction
speed
MPH
gust
MPH
rain 1hr
in
rain 24hr
in
rain mn
in
humidity
%
barometer
mb
20260906222232 69 66 0.0 11.0 0.00 0.00 0.00 59 1013.4
20260906221729 69 126 0.0 11.0 0.00 0.00 0.00 60 1013.5
20260906221232 69 121 0.0 6.0 0.00 0.00 0.00 58 1013.4
20260906220736 69 134 0.0 2.0 0.00 0.00 0.00 60 1013.2
20260906220231 69 130 0.0 2.0 0.00 0.00 0.00 64 1013.2
20260906215730 68 128 0.0 0.0 0.00 0.00 0.00 60 1013.1
20260906215232 68 129 0.0 0.0 0.00 0.00 0.00 61 1013.2
20260906214728 67 120 0.0 0.0 0.00 0.00 0.00 60 1013.2
20260906214229 68 109 0.0 0.0 0.00 0.00 0.00 60 1013.2
20260906213732 68 139 0.0 0.0 0.00 0.00 0.00 59 1013.2
20260906213312 68 105 0.0 0.0 0.00 0.00 0.00 61 1013.2
20260906213251 68 139 0.0 0.0 0.00 0.00 0.00 57 1013.1
20260906212226 67 123 0.0 4.0 0.00 0.00 0.00 65 1013.2
20260906211728 67 151 0.0 4.0 0.00 0.00 0.00 62 1013.1
20260906211225 66 148 0.0 2.0 0.00 0.00 0.00 63 1013.1
20260906210725 67 105 0.0 6.0 0.00 0.00 0.00 63 1013.3
20260906210229 66 143 0.0 6.0 0.00 0.00 0.00 61 1013.4
20260906205727 66 118 0.0 0.0 0.00 0.00 0.00 64 1013.2
20260906205225 66 88 0.0 1.0 0.00 0.00 0.00 65 1013.3
20260906205013 67 121 0.0 3.0 0.00 0.00 0.00 62 1013.2
20260906204522 66 55 0.0 3.0 0.00 0.00 0.00 58 1013.5
20260906203724 66 129 0.0 0.0 0.00 0.00 0.00 63 1013.7
20260906203226 66 84 0.0 0.0 0.00 0.00 0.00 62 1013.4
20260906202725 66 122 0.0 0.0 0.00 0.00 0.00 61 1013.7
20260906202226 66 84 0.0 0.0 0.00 0.00 0.00 60 1013.7
20260906201723 66 59 0.0 0.0 0.00 0.00 0.00 60 1013.6
20260906201225 65 144 0.0 2.0 0.00 0.00 0.00 60 1013.6
20260906200957 65 131 0.0 4.0 0.00 0.00 0.00 61 1013.7
20260906200218 65 100 1.0 4.0 0.00 0.00 0.00 68 1013.8
20260906195720 65 108 0.0 1.0 0.00 0.00 0.00 67 1013.9
20260906195217 65 91 0.0 0.0 0.00 0.00 0.00 62 1013.8
20260906194717 65 140 0.0 0.0 0.00 0.00 0.00 66 1013.7
20260906194220 64 61 0.0 0.0 0.00 0.00 0.00 70 1013.8
20260906193717 64 83 0.0 6.0 0.00 0.00 0.00 67 1014.0
20260906193216 64 55 1.0 6.0 0.00 0.00 0.00 70 1013.8
20260906192714 64 116 0.0 6.0 0.00 0.00 0.00 71 1013.7
20260906192214 64 140 1.0 2.0 0.00 0.00 0.00 68 1014.0
20260906191715 64 92 0.0 7.0 0.00 0.00 0.00 66 1014.2
20260906191215 63 131 0.0 7.0 0.00 0.00 0.00 70 1014.0
20260906190714 64 139 0.0 6.0 0.00 0.00 0.00 68 1014.2
20260906190215 64 106 0.0 6.0 0.00 0.00 0.00 69 1014.0
20260906185713 64 48 0.0 6.0 0.00 0.00 0.00 64 1014.0
20260906185214 64 117 0.0 6.0 0.00 0.00 0.00 67 1014.1
20260906184959 64 140 0.0 2.0 0.00 0.00 0.00 66 1014.0
20260906184214 63 91 0.0 2.0 0.00 0.00 0.00 65 1014.2
20260906184004 64 148 0.0 2.0 0.00 0.00 0.00 68 1014.2
20260906183212 63 48 0.0 8.0 0.00 0.00 0.00 72 1014.5
20260906182715 63 127 0.0 8.0 0.00 0.00 0.00 70 1014.5
20260906182212 62 94 0.0 8.0 0.00 0.00 0.00 72 1014.3
20260906181958 62 114 0.0 8.0 0.00 0.00 0.00 72 1014.6
20260906181216 62 120 0.0 2.0 0.00 0.00 0.00 71 1014.6
20260906180711 62 130 0.0 6.0 0.00 0.00 0.00 73 1014.6
20260906180212 62 116 0.0 0.0 0.00 0.00 0.00 73 1014.6
20260906175714 62 137 0.0 0.0 0.00 0.00 0.00 71 1014.7
20260906175210 62 28 0.0 0.0 0.00 0.00 0.00 72 1014.8
20260906175005 61 23 0.0 0.0 0.00 0.00 0.00 73 1014.9
20260906174215 61 123 0.0 0.0 0.00 0.00 0.00 74 1014.8
20260906173748 61 109 0.0 0.0 0.00 0.00 0.00 75 1014.9
20260906173735 61 76 0.0 0.0 0.00 0.00 0.00 76 1014.6
20260906172713 61 141 0.0 0.0 0.00 0.00 0.00 77 1014.8
20260906172212 61 106 0.0 0.0 0.00 0.00 0.00 75 1014.6
20260906171711 60 109 0.0 0.0 0.00 0.00 0.00 75 1014.6
20260906171212 60 84 0.0 0.0 0.00 0.00 0.00 75 1014.8
20260906170712 60 121 0.0 0.0 0.00 0.00 0.00 75 1015.0
20260906170212 60 143 0.0 0.0 0.00 0.00 0.00 76 1015.0
20260906165714 59 104 0.0 2.0 0.00 0.00 0.00 77 1014.9
20260906165211 59 135 0.0 2.0 0.00 0.00 0.00 78 1014.7
20260906164711 59 107 0.0 6.0 0.00 0.00 0.00 81 1014.7
20260906164212 58 111 0.0 11.0 0.00 0.00 0.00 80 1014.8
20260906163722 58 121 0.0 13.0 0.00 0.00 0.00 86 1014.9
20260906163211 58 71 0.0 13.0 0.00 0.00 0.00 85 1014.7
20260906162958 57 115 0.0 6.0 0.00 0.00 0.00 85 1014.9
20260906162457 56 112 0.0 0.0 0.00 0.00 0.00 89 1014.8
20260906161712 56 133 0.0 0.0 0.00 0.00 0.00 93 1014.9
20260906161210 55 133 0.0 0.0 0.00 0.00 0.00 95 1014.7
20260906160711 55 134 0.0 7.0 0.00 0.00 0.00 96 1014.6
20260906160212 55 134 1.0 7.0 0.00 0.00 0.00 98 1014.7
20260906155957 54 133 0.0 4.0 0.00 0.00 0.00 98 1015.0
20260906155212 54 133 0.0 4.0 0.00 0.00 0.00 99 1014.9
20260906154713 54 131 0.0 0.0 0.00 0.00 0.00 99 1014.7
20260906154212 53 132 0.0 0.0 0.00 0.00 0.00 99 1014.7
20260906153956 53 132 0.0 0.0 0.00 0.00 0.00 99 1014.7
20260906153212 53 133 0.0 0.0 0.00 0.00 0.00 99 1014.7
20260906152712 52 122 0.0 0.0 0.00 0.00 0.00 99 1014.6
20260906152216 52 122 0.0 0.0 0.00 0.00 0.00 99 1014.7
20260906151716 52 122 0.0 0.0 0.00 0.00 0.00 99 1014.6
20260906151453 52 122 0.0 0.0 0.00 0.00 0.00 99 1014.6
20260906150712 52 122 0.0 0.0 0.00 0.00 0.00 99 1014.7
20260906150212 51 122 0.0 0.0 0.00 0.00 0.00 99 1014.7
20260906145712 51 122 0.0 0.0 0.00 0.00 0.00 99 1014.4
20260906145211 51 122 0.0 0.0 0.00 0.00 0.00 99 1014.5
20260906144712 51 122 0.0 0.0 0.00 0.00 0.00 99 1014.6
20260906144211 51 122 0.0 0.0 0.00 0.00 0.00 99 1014.4
20260906143712 51 122 0.0 0.0 0.00 0.00 0.00 99 1014.7
20260906143212 51 122 0.0 0.0 0.00 0.00 0.00 99 1014.8
20260906142712 51 122 0.0 0.0 0.00 0.00 0.00 99 1014.7
20260906142212 51 122 0.0 0.0 0.00 0.00 0.00 99 1014.5
20260906141713 51 122 0.0 0.0 0.00 0.00 0.00 99 1014.5
20260906141454 51 122 0.0 0.0 0.00 0.00 0.00 99 1014.4
20260906140712 50 122 0.0 0.0 0.00 0.00 0.00 99 1014.7
20260906140213 50 122 0.0 0.0 0.00 0.00 0.00 99 1014.6
20260906135953 51 122 0.0 0.0 0.00 0.00 0.00 99 1014.5
20260906135212 51 122 0.0 0.0 0.00 0.00 0.00 99 1014.4
20260906134712 50 122 0.0 0.0 0.00 0.00 0.00 99 1014.6
20260906134212 50 122 0.0 0.0 0.00 0.00 0.00 99 1014.6
20260906133953 50 122 0.0 0.0 0.00 0.00 0.00 98 1014.5
20260906133212 50 122 0.0 0.0 0.00 0.00 0.00 98 1014.7
20260906132712 50 122 0.0 0.0 0.00 0.00 0.00 98 1014.3
20260906132454 50 122 0.0 0.0 0.00 0.00 0.00 98 1014.4
20260906131956 51 122 0.0 0.0 0.00 0.00 0.00 98 1014.3
20260906131457 51 123 0.0 0.0 0.00 0.00 0.00 98 1014.5
20260906130712 51 123 0.0 0.0 0.00 0.00 0.00 98 1014.2
20260906130219 51 123 0.0 0.0 0.00 0.00 0.00 98 1014.3
20260906125711 51 123 0.0 0.0 0.00 0.00 0.00 98 1014.3
20260906125211 51 123 0.0 0.0 0.00 0.00 0.00 98 1014.3
20260906124713 51 123 0.0 0.0 0.00 0.00 0.00 98 1014.6
20260906124212 52 123 0.0 0.0 0.00 0.00 0.00 98 1014.6
20260906123712 51 123 0.0 0.0 0.00 0.00 0.00 98 1014.5
20260906123210 51 123 0.0 0.0 0.00 0.00 0.00 98 1014.7
20260906122713 51 123 0.0 0.0 0.00 0.00 0.00 98 1014.6
20260906122213 51 123 0.0 0.0 0.00 0.00 0.00 98 1014.5
20260906121711 52 123 0.0 0.0 0.00 0.00 0.00 98 1014.5
20260906121211 52 123 0.0 0.0 0.00 0.00 0.00 98 1014.6
20260906120712 52 123 0.0 0.0 0.00 0.00 0.00 98 1014.6
20260906120212 52 123 0.0 0.0 0.00 0.00 0.00 98 1014.8
20260906115713 52 123 0.0 0.0 0.00 0.00 0.00 98 1014.6
20260906115212 52 123 0.0 0.0 0.00 0.00 0.00 98 1014.7
20260906114957 52 123 0.0 0.0 0.00 0.00 0.00 98 1014.6
20260906114212 52 123 0.0 0.0 0.00 0.00 0.00 98 1014.6
20260906113712 52 123 0.0 0.0 0.00 0.00 0.00 98 1014.6
20260906113212 52 123 0.0 0.0 0.00 0.00 0.00 97 1014.6
20260906112711 52 123 0.0 0.0 0.00 0.00 0.00 97 1014.7
20260906112212 52 123 0.0 0.0 0.00 0.00 0.00 97 1014.7
20260906111712 52 123 0.0 0.0 0.00 0.00 0.00 97 1014.8
20260906111212 52 123 0.0 0.0 0.00 0.00 0.00 97 1014.7
20260906110714 52 123 0.0 0.0 0.00 0.00 0.00 97 1014.8
20260906110210 52 123 0.0 0.0 0.00 0.00 0.00 97 1014.7
20260906110007 53 123 0.0 0.0 0.00 0.00 0.00 97 1014.9
20260906105212 53 123 0.0 0.0 0.00 0.00 0.00 97 1014.7
20260906104711 53 123 0.0 0.0 0.00 0.00 0.00 97 1014.8
20260906104213 53 123 0.0 0.0 0.00 0.00 0.00 96 1014.6
20260906103712 53 123 0.0 0.0 0.00 0.00 0.00 96 1014.9
20260906103212 53 123 0.0 0.0 0.00 0.00 0.00 96 1014.8
20260906102713 53 123 0.0 0.0 0.00 0.00 0.00 96 1014.8
20260906102213 53 123 0.0 0.0 0.00 0.00 0.00 96 1014.9
20260906101812 53 123 0.0 0.0 0.00 0.00 0.00 96 1014.7
20260906101744 53 123 0.0 0.0 0.00 0.00 0.00 96 1014.8
20260906100712 53 123 0.0 0.0 0.00 0.00 0.00 96 1014.6
20260906100505 53 123 0.0 0.0 0.00 0.00 0.00 96 1014.7
20260906095710 53 123 0.0 0.0 0.00 0.00 0.00 96 1014.8
20260906095306 53 123 0.0 0.0 0.00 0.00 0.00 95 1014.9
20260906095242 53 123 0.0 0.0 0.00 0.00 0.00 95 1014.9
20260906094217 53 123 0.0 0.0 0.00 0.00 0.00 95 1014.5
20260906093714 53 123 0.0 0.0 0.00 0.00 0.00 95 1014.5
20260906093212 53 123 0.0 0.0 0.00 0.00 0.00 95 1014.6
20260906092714 53 123 0.0 0.0 0.00 0.00 0.00 95 1014.6
20260906092215 53 123 0.0 0.0 0.00 0.00 0.00 95 1014.7
20260906091954 53 123 0.0 0.0 0.00 0.00 0.00 95 1014.6
20260906091212 53 123 0.0 0.0 0.00 0.00 0.00 95 1014.7
20260906090712 53 123 0.0 0.0 0.00 0.00 0.00 94 1014.6
20260906090212 53 123 0.0 0.0 0.00 0.00 0.00 94 1014.5
20260906085720 53 123 0.0 0.0 0.00 0.00 0.00 94 1014.6
20260906085212 53 123 0.0 0.0 0.00 0.00 0.00 94 1014.7
20260906084713 53 123 0.0 0.0 0.00 0.00 0.00 94 1014.7
20260906084212 54 123 0.0 0.0 0.00 0.00 0.00 94 1014.7
20260906083712 54 123 0.0 0.0 0.00 0.00 0.00 94 1014.9
20260906083220 54 123 0.0 0.0 0.00 0.00 0.00 93 1014.8
20260906082711 54 123 0.0 0.0 0.00 0.00 0.00 93 1015.0
20260906082213 54 123 0.0 0.0 0.00 0.00 0.00 93 1014.9
20260906081712 54 123 0.0 0.0 0.00 0.00 0.00 93 1014.9
20260906081453 54 123 0.0 0.0 0.00 0.00 0.00 92 1014.9
20260906080711 54 123 0.0 0.0 0.00 0.00 0.00 92 1014.9
20260906080212 54 123 0.0 0.0 0.00 0.00 0.00 92 1014.7
20260906075712 55 123 0.0 0.0 0.00 0.00 0.00 92 1014.9
20260906075212 55 123 0.0 0.0 0.00 0.00 0.00 92 1014.9
20260906074954 55 123 0.0 0.0 0.00 0.00 0.00 91 1014.9
20260906074220 55 123 0.0 0.0 0.00 0.00 0.00 91 1014.8
20260906073711 55 123 0.0 0.0 0.00 0.00 0.00 92 1015.0
20260906073453 55 123 0.0 0.0 0.00 0.00 0.00 91 1014.9
20260906072712 55 123 0.0 0.0 0.00 0.00 0.00 91 1015.2
20260906072212 55 123 0.0 0.0 0.00 0.00 0.00 91 1015.1
20260906071711 55 123 0.0 0.0 0.00 0.00 0.00 91 1014.9
20260906071212 55 123 0.0 0.0 0.00 0.00 0.00 90 1015.1
20260906070712 55 123 0.0 0.0 0.00 0.00 0.00 90 1015.2
20260906070454 55 123 0.0 0.0 0.00 0.00 0.00 90 1014.9
20260906065712 55 123 0.0 0.0 0.00 0.00 0.00 90 1015.1
20260906065212 55 123 0.0 0.0 0.00 0.00 0.00 90 1015.0
20260906064711 55 123 0.0 0.0 0.00 0.00 0.00 89 1015.0
20260906064213 55 123 0.0 0.0 0.00 0.00 0.00 90 1015.3
20260906063712 55 123 0.0 0.0 0.00 0.00 0.00 90 1015.1
20260906063212 56 123 0.0 0.0 0.00 0.00 0.00 89 1015.4
20260906062957 56 123 0.0 0.0 0.00 0.00 0.00 89 1015.3
20260906062212 56 123 0.0 0.0 0.00 0.00 0.00 88 1015.1
20260906061711 56 122 0.0 0.0 0.00 0.00 0.00 88 1015.2
20260906061507 56 122 0.0 0.0 0.00 0.00 0.00 87 1015.0
20260906060712 57 91 0.0 0.0 0.00 0.00 0.00 87 1015.2
20260906060237 57 132 0.0 0.0 0.00 0.00 0.00 84 1015.1
20260906055212 57 133 0.0 0.0 0.00 0.00 0.00 86 1015.3
20260906054711 57 133 0.0 9.0 0.00 0.00 0.00 84 1014.9
20260906054212 57 133 0.0 9.0 0.00 0.00 0.00 85 1015.0
20260906053711 57 133 0.0 7.0 0.00 0.00 0.00 84 1015.2
20260906053505 58 133 0.0 2.0 0.00 0.00 0.00 84 1015.1
20260906052710 58 133 0.0 13.0 0.00 0.00 0.00 85 1015.1
20260906052212 58 133 2.0 13.0 0.00 0.00 0.00 84 1015.1
20260906052005 58 133 0.0 1.0 0.00 0.00 0.00 86 1015.1
20260906051213 58 133 0.0 1.0 0.00 0.00 0.00 85 1015.0
20260906050711 58 132 0.0 0.0 0.00 0.00 0.00 86 1015.2
20260906050212 58 133 0.0 0.0 0.00 0.00 0.00 86 1015.4
20260906045711 58 126 0.0 0.0 0.00 0.00 0.00 84 1015.2
20260906045212 58 120 0.0 0.0 0.00 0.00 0.00 84 1015.2
20260906044712 58 134 0.0 0.0 0.00 0.00 0.00 82 1015.3
20260906044503 59 134 0.0 0.0 0.00 0.00 0.00 83 1015.6
20260906043712 59 134 0.0 0.0 0.00 0.00 0.00 81 1015.6
20260906043212 59 134 0.0 0.0 0.00 0.00 0.00 81 1015.7
20260906042711 59 134 0.0 0.0 0.00 0.00 0.00 81 1015.4
20260906042213 59 134 0.0 0.0 0.00 0.00 0.00 81 1015.6
20260906042007 59 134 0.0 0.0 0.00 0.00 0.00 82 1015.4
20260906041212 59 134 0.0 0.0 0.00 0.00 0.00 82 1015.9
20260906040710 59 134 0.0 0.0 0.00 0.00 0.00 79 1015.4
20260906040216 59 134 0.0 0.0 0.00 0.00 0.00 80 1015.7
20260906035712 59 134 0.0 0.0 0.00 0.00 0.00 80 1015.6
20260906035213 60 136 0.0 0.0 0.00 0.00 0.00 79 1015.8
20260906034712 60 137 0.0 0.0 0.00 0.00 0.00 79 1015.6
20260906034534 60 136 0.0 0.0 0.00 0.00 0.00 78 1015.6
20260906034526 60 137 0.0 0.0 0.00 0.00 0.00 78 1015.4
20260906033212 60 137 0.0 0.0 0.00 0.00 0.00 78 1015.6
20260906032711 60 137 0.0 0.0 0.00 0.00 0.00 78 1015.7
20260906032213 61 137 0.0 0.0 0.00 0.00 0.00 77 1015.0
20260906031711 61 137 0.0 0.0 0.00 0.00 0.00 78 1015.3
20260906031503 61 137 0.0 0.0 0.00 0.00 0.00 77 1015.1
20260906030711 61 137 0.0 0.0 0.00 0.00 0.00 78 1015.2
20260906030212 61 137 0.0 0.0 0.00 0.00 0.00 77 1014.9
20260906030002 61 137 0.0 0.0 0.00 0.00 0.00 76 1015.3
20260906025212 61 137 0.0 0.0 0.00 0.00 0.00 77 1015.0
20260906024712 61 137 0.0 0.0 0.00 0.00 0.00 78 1015.0
20260906024211 62 137 0.0 0.0 0.00 0.00 0.00 79 1015.3
20260906023711 62 137 0.0 0.0 0.00 0.01 0.00 80 1015.3
20260906023212 62 137 0.0 0.0 0.00 0.01 0.00 78 1015.4
20260906022713 62 137 0.0 0.0 0.00 0.01 0.00 78 1014.9
20260906022212 63 137 0.0 0.0 0.00 0.01 0.00 77 1015.1
20260906021711 63 137 0.0 0.0 0.00 0.01 0.00 78 1015.1
20260906021213 63 137 0.0 0.0 0.00 0.01 0.00 77 1015.1
20260906020711 63 148 0.0 0.0 0.00 0.01 0.00 75 1015.0
20260906020211 64 148 0.0 0.0 0.00 0.01 0.00 75 1015.2
20260906015712 63 141 0.0 0.0 0.00 0.01 0.00 75 1015.1
20260906015454 64 141 0.0 2.0 0.00 0.02 0.00 73 1015.0
20260906014711 64 141 0.0 2.0 0.00 0.02 0.00 73 1015.2
20260906014212 64 139 0.0 0.0 0.00 0.02 0.00 73 1015.0
20260906013711 65 138 0.0 3.0 0.00 0.02 0.00 70 1014.9
20260906013213 65 138 0.0 4.0 0.00 0.02 0.00 67 1014.8
20260906012711 65 152 0.0 8.0 0.00 0.02 0.00 65 1015.0
20260906012455 65 148 0.0 8.0 0.00 0.02 0.00 68 1014.7
20260906011713 65 150 0.0 3.0 0.00 0.02 0.00 68 1014.8
20260906011212 65 127 0.0 0.0 0.00 0.02 0.00 60 1014.9
20260906010711 65 151 0.0 0.0 0.00 0.02 0.00 67 1014.9
20260906010213 65 151 0.0 0.0 0.00 0.02 0.00 66 1014.9
20260906005711 65 151 0.0 0.0 0.00 0.02 0.00 68 1014.8
20260906005211 66 151 0.0 0.0 0.00 0.02 0.00 70 1014.8
20260906004712 66 150 0.0 8.0 0.00 0.02 0.00 68 1014.7
20260906004212 67 150 0.0 13.0 0.00 0.02 0.00 63 1014.6
20260906003711 67 152 0.0 1.0 0.00 0.02 0.00 57 1014.7
20260906003457 67 153 0.0 1.0 0.00 0.02 0.00 57 1014.7
20260906002712 66 158 0.0 1.0 0.00 0.02 0.00 59 1014.7
20260906002212 66 160 0.0 6.0 0.00 0.02 0.00 65 1014.7
20260906001711 66 160 0.0 6.0 0.00 0.02 0.00 65 1014.7
20260906001211 66 160 0.0 0.0 0.00 0.02 0.00 62 1014.5
20260906000712 66 160 0.0 0.0 0.00 0.02 0.00 64 1014.5
20260906000212 66 160 0.0 0.0 0.00 0.02 0.00 62 1014.6
20260905235712 66 160 0.0 0.0 0.00 0.02 0.00 61 1014.4
20260905235211 66 161 0.0 0.0 0.00 0.02 0.00 67 1014.6
20260905235003 65 148 0.0 1.0 0.00 0.02 0.00 72 1014.7
20260905234212 65 122 0.0 4.0 0.00 0.02 0.00 66 1014.5
20260905233712 65 138 0.0 4.0 0.00 0.02 0.00 65 1014.6
20260905233212 66 143 0.0 1.0 0.00 0.02 0.00 65 1014.6
20260905232712 66 138 0.0 3.0 0.00 0.02 0.00 64 1014.9
20260905232211 66 123 0.0 6.0 0.00 0.02 0.00 67 1014.8
20260905231712 66 93 1.0 6.0 0.00 0.02 0.00 64 1014.9
20260905231212 66 136 0.0 0.0 0.00 0.02 0.00 71 1015.0
20260905230710 66 143 0.0 1.0 0.00 0.02 0.00 68 1015.2
20260905230212 66 124 0.0 2.0 0.00 0.02 0.00 70 1015.2
20260905230007 67 124 0.0 2.0 0.00 0.02 0.00 68 1015.0
20260905225211 67 121 0.0 2.0 0.00 0.02 0.00 61 1015.3
20260905225003 67 112 0.0 4.0 0.00 0.02 0.00 60 1015.2
20260905224213 67 118 0.0 4.0 0.00 0.02 0.00 67 1015.0
20260905223711 67 118 0.0 2.0 0.00 0.02 0.00 62 1015.4
20260905223211 67 110 0.0 0.0 0.00 0.02 0.00 62 1015.2
20260905222712 68 138 0.0 0.0 0.00 0.02 0.00 59 1014.9